Time,TemperatureF,DewpointF,PressureIn,WindDirection,WindDirectionDegrees,WindSpeedMPH,WindSpeedGustMPH,Humidity,HourlyPrecipIn,Conditions,Clouds,dailyrainin,SoftwareType,DateUTC
2013-02-15 00:00:00,30.9,26.9,29.99,West,268,0.0,0.0,85,0.00,,---,0.04,VWS V14.01,2013-02-15 05:00:00,
2013-02-15 00:05:00,30.7,26.7,29.99,West,268,0.0,0.0,85,0.00,,---,0.00,VWS V14.01,2013-02-15 05:05:00,
2013-02-15 00:10:00,30.4,26.4,29.99,West,268,0.0,0.0,85,0.00,,---,0.00,VWS V14.01,2013-02-15 05:10:00,
2013-02-15 00:15:00,30.4,26.4,29.98,West,268,0.0,0.0,85,0.00,,---,0.00,VWS V14.01,2013-02-15 05:15:00,
2013-02-15 00:20:00,30.4,26.7,29.98,West,268,0.0,0.0,86,0.00,,---,0.00,VWS V14.01,2013-02-15 05:20:00,
2013-02-15 00:25:00,30.3,26.6,29.98,West,268,0.0,0.0,86,0.00,,---,0.00,VWS V14.01,2013-02-15 05:25:00,
2013-02-15 00:30:00,30.3,26.6,29.98,West,268,0.0,0.0,86,0.00,,---,0.00,VWS V14.01,2013-02-15 05:30:00,
2013-02-15 00:35:00,30.3,26.6,29.98,West,268,0.0,0.0,86,0.00,,---,0.00,VWS V14.01,2013-02-15 05:35:00,
2013-02-15 00:40:00,30.3,26.6,29.98,West,268,0.0,0.0,86,0.00,,---,0.00,VWS V14.01,2013-02-15 05:40:00,
2013-02-15 00:45:00,30.3,26.9,29.98,West,268,0.0,0.0,87,0.00,,---,0.00,VWS V14.01,2013-02-15 05:45:00,
2013-02-15 00:50:00,30.1,26.7,29.98,West,268,0.0,0.0,87,0.00,,---,0.00,VWS V14.01,2013-02-15 05:50:00,
2013-02-15 00:55:00,30.1,26.7,29.98,West,268,0.0,0.0,87,0.00,,---,0.00,VWS V14.01,2013-02-15 05:55:00,
2013-02-15 01:00:00,30.1,27.0,29.99,West,268,0.0,0.0,88,0.00,,---,0.00,VWS V14.01,2013-02-15 06:00:00,
2013-02-15 01:05:00,30.1,27.0,29.99,West,268,0.0,0.0,88,0.00,,---,0.00,VWS V14.01,2013-02-15 06:05:00,
2013-02-15 01:10:00,29.8,26.7,29.99,West,268,0.0,0.0,88,0.00,,---,0.00,VWS V14.01,2013-02-15 06:10:00,
2013-02-15 01:15:00,29.7,26.6,29.99,West,268,0.0,0.0,88,0.00,,---,0.00,VWS V14.01,2013-02-15 06:15:00,
2013-02-15 01:20:00,29.7,26.9,29.99,West,268,0.0,0.0,89,0.00,,---,0.00,VWS V14.01,2013-02-15 06:20:00,
2013-02-15 01:25:00,29.5,26.7,29.99,West,268,0.0,0.0,89,0.00,,---,0.00,VWS V14.01,2013-02-15 06:25:00,
2013-02-15 01:30:00,29.7,26.9,29.99,West,268,0.0,0.0,89,0.00,,---,0.00,VWS V14.01,2013-02-15 06:30:00,
2013-02-15 01:35:00,29.7,26.9,29.99,West,268,0.0,0.0,89,0.00,,---,0.00,VWS V14.01,2013-02-15 06:35:00,
2013-02-15 01:40:00,29.7,26.9,29.99,West,268,0.0,0.0,89,0.00,,---,0.00,VWS V14.01,2013-02-15 06:40:00,
2013-02-15 01:45:00,29.5,26.7,29.99,West,268,0.0,0.0,89,0.00,,---,0.00,VWS V14.01,2013-02-15 06:45:00,
2013-02-15 01:50:00,29.5,26.7,29.99,West,268,0.0,0.0,89,0.00,,---,0.00,VWS V14.01,2013-02-15 06:50:00,
2013-02-15 01:55:00,29.4,26.6,29.99,West,268,0.0,0.0,89,0.00,,---,0.00,VWS V14.01,2013-02-15 06:55:00,
2013-02-15 02:00:00,29.3,26.7,29.99,West,268,0.0,0.0,90,0.00,,---,0.00,VWS V14.01,2013-02-15 07:00:00,
2013-02-15 02:05:00,29.3,26.7,29.99,West,268,0.0,0.0,90,0.00,,---,0.00,VWS V14.01,2013-02-15 07:05:00,
2013-02-15 02:10:00,29.3,26.7,29.99,West,268,0.0,0.0,90,0.00,,---,0.00,VWS V14.01,2013-02-15 07:10:00,
2013-02-15 02:15:00,29.1,26.5,29.99,West,268,0.0,0.0,90,0.00,,---,0.00,VWS V14.01,2013-02-15 07:15:00,
2013-02-15 02:20:00,29.1,26.5,29.99,West,268,0.0,0.0,90,0.00,,---,0.00,VWS V14.01,2013-02-15 07:20:00,
2013-02-15 02:25:00,29.0,26.4,29.99,West,268,0.0,0.0,90,0.00,,---,0.00,VWS V14.01,2013-02-15 07:25:00,
2013-02-15 02:30:00,29.0,26.4,29.99,West,268,0.0,0.0,90,0.00,,---,0.00,VWS V14.01,2013-02-15 07:30:00,
2013-02-15 02:35:00,29.0,26.7,29.99,West,268,0.0,0.0,91,0.00,,---,0.00,VWS V14.01,2013-02-15 07:35:00,
2013-02-15 02:40:00,29.0,26.7,29.99,West,268,0.0,1.0,91,0.00,,---,0.00,VWS V14.01,2013-02-15 07:40:00,
2013-02-15 02:45:00,29.1,26.8,29.99,West,268,0.0,0.0,91,0.00,,---,0.00,VWS V14.01,2013-02-15 07:45:00,
2013-02-15 02:50:00,29.1,26.8,29.99,West,268,0.0,0.0,91,0.00,,---,0.00,VWS V14.01,2013-02-15 07:50:00,
2013-02-15 02:55:00,29.3,27.0,29.99,West,268,0.0,0.0,91,0.00,,---,0.00,VWS V14.01,2013-02-15 07:55:00,
2013-02-15 03:00:00,29.4,27.4,29.98,West,268,0.0,0.0,92,0.00,,---,0.00,VWS V14.01,2013-02-15 08:00:00,
2013-02-15 03:05:00,29.5,27.5,29.98,West,268,0.0,0.0,92,0.00,,---,0.00,VWS V14.01,2013-02-15 08:05:00,
2013-02-15 03:10:00,29.5,27.5,29.98,West,268,0.0,0.0,92,0.00,,---,0.00,VWS V14.01,2013-02-15 08:10:00,
2013-02-15 03:15:00,29.7,27.9,29.98,West,268,0.0,0.0,93,0.00,,---,0.00,VWS V14.01,2013-02-15 08:15:00,
2013-02-15 03:20:00,29.8,28.0,29.98,West,268,0.0,0.0,93,0.00,,---,0.00,VWS V14.01,2013-02-15 08:20:00,
2013-02-15 03:25:00,30.0,28.2,29.98,West,268,0.0,0.0,93,0.00,,---,0.00,VWS V14.01,2013-02-15 08:25:00,
2013-02-15 03:30:00,30.1,28.3,29.98,West,268,0.0,0.0,93,0.00,,---,0.00,VWS V14.01,2013-02-15 08:30:00,
2013-02-15 03:35:00,30.1,28.3,29.98,West,268,0.0,0.0,93,0.00,,---,0.00,VWS V14.01,2013-02-15 08:35:00,
2013-02-15 03:40:00,30.3,28.5,29.98,West,268,0.0,0.0,93,0.00,,---,0.00,VWS V14.01,2013-02-15 08:40:00,
2013-02-15 03:45:00,30.3,28.8,29.97,West,268,0.0,0.0,94,0.00,,---,0.00,VWS V14.01,2013-02-15 08:45:00,
2013-02-15 03:50:00,30.4,28.9,29.97,West,268,0.0,0.0,94,0.00,,---,0.00,VWS V14.01,2013-02-15 08:50:00,
2013-02-15 03:55:00,30.4,28.9,29.97,West,268,0.0,0.0,94,0.00,,---,0.00,VWS V14.01,2013-02-15 08:55:00,
2013-02-15 04:00:00,30.6,29.1,29.98,West,268,0.0,0.0,94,0.00,,---,0.00,VWS V14.01,2013-02-15 09:00:00,
2013-02-15 04:05:00,30.7,29.2,29.98,West,268,0.0,1.0,94,0.00,,---,0.00,VWS V14.01,2013-02-15 09:05:00,
2013-02-15 04:10:00,30.7,29.2,29.98,West,268,0.0,0.0,94,0.00,,---,0.00,VWS V14.01,2013-02-15 09:10:00,
2013-02-15 04:15:00,30.9,29.4,29.98,West,268,0.0,0.0,94,0.00,,---,0.00,VWS V14.01,2013-02-15 09:15:00,
2013-02-15 04:20:00,31.0,29.5,29.98,West,268,0.0,0.0,94,0.00,,---,0.00,VWS V14.01,2013-02-15 09:20:00,
2013-02-15 04:25:00,31.2,29.9,29.98,West,268,0.0,0.0,95,0.00,,---,0.00,VWS V14.01,2013-02-15 09:25:00,
2013-02-15 04:30:00,31.3,30.0,29.98,West,268,0.0,0.0,95,0.00,,---,0.00,VWS V14.01,2013-02-15 09:30:00,
2013-02-15 04:35:00,31.5,30.2,29.98,West,268,0.0,0.0,95,0.00,,---,0.00,VWS V14.01,2013-02-15 09:35:00,
2013-02-15 04:40:00,31.8,30.5,29.98,West,268,0.0,0.0,95,0.00,,---,0.00,VWS V14.01,2013-02-15 09:40:00,
2013-02-15 04:45:00,31.9,30.6,29.98,West,268,0.0,0.0,95,0.00,,---,0.00,VWS V14.01,2013-02-15 09:45:00,
2013-02-15 04:50:00,32.1,31.1,29.98,West,268,0.0,0.0,96,0.00,,---,0.00,VWS V14.01,2013-02-15 09:50:00,
2013-02-15 04:55:00,32.1,31.1,29.98,West,268,0.0,0.0,96,0.00,,---,0.00,VWS V14.01,2013-02-15 09:55:00,
2013-02-15 05:00:00,32.2,31.2,29.99,West,268,0.0,0.0,96,0.00,,---,0.00,VWS V14.01,2013-02-15 10:00:00,
2013-02-15 05:05:00,32.2,31.2,29.99,West,268,0.0,0.0,96,0.00,,---,0.00,VWS V14.01,2013-02-15 10:05:00,
2013-02-15 05:10:00,32.2,31.2,29.99,West,268,0.0,0.0,96,0.00,,---,0.00,VWS V14.01,2013-02-15 10:10:00,
2013-02-15 05:15:00,32.2,31.2,29.98,West,268,0.0,0.0,96,0.00,,---,0.00,VWS V14.01,2013-02-15 10:15:00,
2013-02-15 05:20:00,32.1,31.1,29.98,West,268,0.0,0.0,96,0.00,,---,0.00,VWS V14.01,2013-02-15 10:20:00,
2013-02-15 05:25:00,32.1,31.1,29.98,West,268,0.0,1.0,96,0.00,,---,0.00,VWS V14.01,2013-02-15 10:25:00,
2013-02-15 05:30:00,31.9,30.9,29.98,West,268,0.0,0.0,96,0.00,,---,0.00,VWS V14.01,2013-02-15 10:30:00,
2013-02-15 05:35:00,31.9,30.9,29.98,West,268,0.0,0.0,96,0.00,,---,0.00,VWS V14.01,2013-02-15 10:35:00,
2013-02-15 05:40:00,31.8,30.8,29.98,West,268,0.0,0.0,96,0.00,,---,0.00,VWS V14.01,2013-02-15 10:40:00,
2013-02-15 05:45:00,31.8,30.8,29.98,West,268,0.0,0.0,96,0.00,,---,0.00,VWS V14.01,2013-02-15 10:45:00,
2013-02-15 05:50:00,31.6,30.6,29.98,West,268,2.0,2.0,96,0.00,,---,0.00,VWS V14.01,2013-02-15 10:50:00,
2013-02-15 05:55:00,31.6,30.6,29.98,West,268,0.0,2.0,96,0.00,,---,0.00,VWS V14.01,2013-02-15 10:55:00,
2013-02-15 06:00:00,31.5,30.5,29.99,West,268,1.0,1.0,96,0.00,,---,0.00,VWS V14.01,2013-02-15 11:00:00,
2013-02-15 06:05:00,31.5,30.8,29.99,West,268,0.0,1.0,97,0.00,,---,0.00,VWS V14.01,2013-02-15 11:05:00,
2013-02-15 06:10:00,31.6,30.9,29.99,West,268,0.0,0.0,97,0.00,,---,0.00,VWS V14.01,2013-02-15 11:10:00,
2013-02-15 06:15:00,31.6,30.9,29.99,West,268,0.0,0.0,97,0.00,,---,0.00,VWS V14.01,2013-02-15 11:15:00,
2013-02-15 06:20:00,31.3,30.3,29.99,West,268,0.0,0.0,96,0.00,,---,0.00,VWS V14.01,2013-02-15 11:20:00,
2013-02-15 06:25:00,31.3,30.3,29.99,West,268,0.0,1.0,96,0.00,,---,0.00,VWS V14.01,2013-02-15 11:25:00,
2013-02-15 06:30:00,31.3,30.5,29.99,WSW,245,3.0,4.0,97,0.00,,---,0.00,VWS V14.01,2013-02-15 11:30:00,
2013-02-15 06:35:00,31.5,30.8,29.99,WSW,238,0.0,3.0,97,0.00,,---,0.00,VWS V14.01,2013-02-15 11:35:00,
2013-02-15 06:40:00,31.6,30.9,29.99,WSW,238,0.0,2.0,97,0.00,,---,0.00,VWS V14.01,2013-02-15 11:40:00,
2013-02-15 06:45:00,31.9,31.1,29.99,WSW,238,1.0,3.0,97,0.00,,---,0.00,VWS V14.01,2013-02-15 11:45:00,
2013-02-15 06:50:00,32.1,31.4,29.99,WSW,238,1.0,3.0,97,0.00,,---,0.00,VWS V14.01,2013-02-15 11:50:00,
2013-02-15 06:55:00,32.4,31.9,29.99,WSW,245,2.0,3.0,98,0.00,,---,0.00,VWS V14.01,2013-02-15 11:55:00,
2013-02-15 07:00:00,32.5,32.0,29.99,WSW,245,0.0,1.0,98,0.00,,---,0.00,VWS V14.01,2013-02-15 12:00:00,
2013-02-15 07:05:00,32.4,31.6,29.99,WSW,245,0.0,0.0,97,0.00,,---,0.00,VWS V14.01,2013-02-15 12:05:00,
2013-02-15 07:10:00,32.4,31.6,29.99,WSW,245,0.0,0.0,97,0.00,,---,0.00,VWS V14.01,2013-02-15 12:10:00,
2013-02-15 07:15:00,32.2,31.5,29.99,WSW,245,0.0,0.0,97,0.00,,---,0.00,VWS V14.01,2013-02-15 12:15:00,
2013-02-15 07:20:00,32.2,31.5,29.99,WSW,245,0.0,0.0,97,0.00,,---,0.00,VWS V14.01,2013-02-15 12:20:00,
2013-02-15 07:25:00,32.2,31.7,29.99,WSW,245,0.0,0.0,98,0.00,,---,0.00,VWS V14.01,2013-02-15 12:25:00,
2013-02-15 07:30:00,32.2,31.7,29.99,WSW,245,0.0,0.0,98,0.00,,---,0.00,VWS V14.01,2013-02-15 12:30:00,
2013-02-15 07:35:00,32.4,31.9,29.99,WSW,245,0.0,0.0,98,0.00,,---,0.00,VWS V14.01,2013-02-15 12:35:00,
2013-02-15 07:40:00,32.5,32.0,29.99,WSW,245,0.0,0.0,98,0.00,,---,0.00,VWS V14.01,2013-02-15 12:40:00,
2013-02-15 07:45:00,32.8,32.5,29.99,WSW,245,0.0,0.0,99,0.00,,---,0.00,VWS V14.01,2013-02-15 12:45:00,
2013-02-15 07:50:00,33.5,33.2,29.99,WSW,245,0.0,1.0,99,0.00,,---,0.00,VWS V14.01,2013-02-15 12:50:00,
2013-02-15 07:54:00,33.7,33.5,29.99,WSW,245,0.0,0.0,99,0.00,,---,0.00,VWS V14.01,2013-02-15 12:54:00,
2013-02-15 07:59:00,33.7,33.2,29.99,WSW,245,0.0,0.0,98,0.00,,---,0.00,VWS V14.01,2013-02-15 12:59:00,
2013-02-15 08:04:00,34.1,33.8,29.99,WSW,245,0.0,0.0,99,0.00,,---,0.00,VWS V14.01,2013-02-15 13:04:00,
2013-02-15 08:09:00,34.6,34.1,29.99,WSW,245,0.0,2.0,98,0.00,,---,0.00,VWS V14.01,2013-02-15 13:09:00,
2013-02-15 08:14:00,35.0,34.5,29.99,South,189,0.0,4.0,98,0.00,,---,0.00,VWS V14.01,2013-02-15 13:14:00,
2013-02-15 08:19:00,35.2,34.4,29.99,South,189,1.0,2.0,97,0.00,,---,0.00,VWS V14.01,2013-02-15 13:19:00,
2013-02-15 08:24:00,35.5,34.5,29.99,South,187,0.0,2.0,96,0.00,,---,0.00,VWS V14.01,2013-02-15 13:24:00,
2013-02-15 08:29:00,36.0,35.0,30.00,South,187,0.0,1.0,96,0.00,,---,0.00,VWS V14.01,2013-02-15 13:29:00,
2013-02-15 08:34:00,36.3,35.0,30.00,South,187,0.0,1.0,95,0.00,,---,0.00,VWS V14.01,2013-02-15 13:34:00,
2013-02-15 08:39:00,36.6,35.0,30.00,SSW,200,1.0,2.0,94,0.00,,---,0.00,VWS V14.01,2013-02-15 13:39:00,
2013-02-15 08:44:00,37.9,36.1,30.00,WSW,249,3.0,5.0,93,0.00,,---,0.00,VWS V14.01,2013-02-15 13:44:00,
2013-02-15 08:49:00,38.8,36.1,30.00,WSW,242,5.0,7.0,90,0.00,,---,0.00,VWS V14.01,2013-02-15 13:49:00,
2013-02-15 08:54:00,39.2,36.0,30.00,SW,228,5.0,7.0,88,0.00,,---,0.00,VWS V14.01,2013-02-15 13:54:00,
2013-02-15 08:59:00,39.6,35.8,30.00,WSW,237,8.0,10.0,86,0.00,,---,0.00,VWS V14.01,2013-02-15 13:59:00,
2013-02-15 09:04:00,39.9,35.8,30.00,SW,236,2.0,7.0,85,0.00,,---,0.00,VWS V14.01,2013-02-15 14:04:00,
2013-02-15 09:09:00,40.1,35.7,30.00,WSW,239,6.0,9.0,84,0.00,,---,0.00,VWS V14.01,2013-02-15 14:09:00,
2013-02-15 09:14:00,40.3,35.9,30.00,SW,227,4.0,6.0,84,0.00,,---,0.00,VWS V14.01,2013-02-15 14:14:00,
2013-02-15 09:19:00,40.8,36.0,30.00,WSW,250,5.0,6.0,83,0.00,,---,0.00,VWS V14.01,2013-02-15 14:19:00,
2013-02-15 09:24:00,41.1,36.0,30.00,SW,236,3.0,7.0,82,0.00,,---,0.00,VWS V14.01,2013-02-15 14:24:00,
2013-02-15 09:29:00,41.5,34.8,30.00,WSW,249,3.0,5.0,77,0.00,,---,0.00,VWS V14.01,2013-02-15 14:29:00,
2013-02-15 09:34:00,41.5,35.8,30.00,WSW,240,7.0,8.0,80,0.00,,---,0.00,VWS V14.01,2013-02-15 14:34:00,
2013-02-15 09:39:00,41.6,35.9,30.00,WSW,238,7.0,8.0,80,0.00,,---,0.00,VWS V14.01,2013-02-15 14:39:00,
2013-02-15 09:44:00,41.9,35.9,30.00,WSW,239,5.0,8.0,79,0.00,,---,0.00,VWS V14.01,2013-02-15 14:44:00,
2013-02-15 09:49:00,42.2,35.8,30.00,SW,225,5.0,8.0,78,0.00,,---,0.00,VWS V14.01,2013-02-15 14:49:00,
2013-02-15 09:54:00,42.8,35.4,30.00,SW,234,4.0,7.0,75,0.00,,---,0.00,VWS V14.01,2013-02-15 14:54:00,
2013-02-15 09:59:00,43.2,35.5,30.00,SSW,211,4.0,9.0,74,0.00,,---,0.00,VWS V14.01,2013-02-15 14:59:00,
2013-02-15 10:04:00,43.5,35.1,30.00,WSW,239,8.0,9.0,72,0.00,,---,0.00,VWS V14.01,2013-02-15 15:04:00,
2013-02-15 10:09:00,43.8,34.7,30.00,WSW,248,4.0,9.0,70,0.00,,---,0.00,VWS V14.01,2013-02-15 15:09:00,
2013-02-15 10:14:00,43.9,34.0,30.00,SW,219,4.0,12.0,68,0.00,,---,0.00,VWS V14.01,2013-02-15 15:14:00,
2013-02-15 10:19:00,44.2,34.0,29.99,WSW,240,5.0,11.0,67,0.00,,---,0.00,VWS V14.01,2013-02-15 15:19:00,
2013-02-15 10:24:00,44.8,33.8,29.99,SW,225,5.0,7.0,65,0.00,,---,0.00,VWS V14.01,2013-02-15 15:24:00,
2013-02-15 10:29:00,45.2,33.8,29.99,SW,230,4.0,9.0,64,0.00,,---,0.00,VWS V14.01,2013-02-15 15:29:00,
2013-02-15 10:34:00,45.2,33.8,29.99,SW,234,4.0,12.0,64,0.00,,---,0.00,VWS V14.01,2013-02-15 15:34:00,
2013-02-15 10:39:00,45.7,34.2,29.99,SSW,209,9.0,10.0,64,0.00,,---,0.00,VWS V14.01,2013-02-15 15:39:00,
2013-02-15 10:44:00,45.8,33.9,29.99,SW,229,7.0,10.0,63,0.00,,---,0.00,VWS V14.01,2013-02-15 15:44:00,
2013-02-15 10:49:00,46.1,33.8,29.99,West,263,5.0,12.0,62,0.00,,---,0.00,VWS V14.01,2013-02-15 15:49:00,
2013-02-15 10:54:00,46.1,33.4,29.99,South,191,7.0,13.0,61,0.00,,---,0.00,VWS V14.01,2013-02-15 15:54:00,
2013-02-15 10:59:00,46.7,34.0,29.99,SSW,205,9.0,10.0,61,0.00,,---,0.00,VWS V14.01,2013-02-15 15:59:00,
2013-02-15 11:04:00,46.7,33.6,29.98,WSW,250,3.0,8.0,60,0.00,,---,0.00,VWS V14.01,2013-02-15 16:04:00,
2013-02-15 11:09:00,47.1,33.9,29.98,WSW,249,5.0,7.0,60,0.00,,---,0.00,VWS V14.01,2013-02-15 16:09:00,
2013-02-15 11:14:00,47.3,33.7,29.98,SW,229,4.0,10.0,59,0.00,,---,0.00,VWS V14.01,2013-02-15 16:14:00,
2013-02-15 11:19:00,47.4,33.8,29.98,SW,235,6.0,10.0,59,0.00,,---,0.00,VWS V14.01,2013-02-15 16:19:00,
2013-02-15 11:24:00,47.3,34.1,29.98,WSW,244,12.0,15.0,60,0.00,,---,0.00,VWS V14.01,2013-02-15 16:24:00,
2013-02-15 11:29:00,47.3,34.1,29.98,WSW,244,3.0,11.0,60,0.00,,---,0.00,VWS V14.01,2013-02-15 16:29:00,
2013-02-15 11:34:00,47.3,34.1,29.97,SW,216,7.0,11.0,60,0.00,,---,0.00,VWS V14.01,2013-02-15 16:34:00,
2013-02-15 11:39:00,47.6,34.4,29.97,SW,219,5.0,10.0,60,0.00,,---,0.00,VWS V14.01,2013-02-15 16:39:00,
2013-02-15 11:44:00,47.6,34.4,29.97,SSW,211,6.0,11.0,60,0.00,,---,0.00,VWS V14.01,2013-02-15 16:44:00,
2013-02-15 11:49:00,47.7,34.5,29.97,WSW,250,10.0,10.0,60,0.00,,---,0.00,VWS V14.01,2013-02-15 16:49:00,
2013-02-15 11:54:00,47.6,34.8,29.97,SSW,211,6.0,11.0,61,0.00,,---,0.00,VWS V14.01,2013-02-15 16:54:00,
2013-02-15 11:59:00,47.7,34.5,29.97,SSW,207,7.0,11.0,60,0.00,,---,0.00,VWS V14.01,2013-02-15 16:59:00,
2013-02-15 12:04:00,48.0,34.8,29.96,South,183,5.0,9.0,60,0.00,,---,0.00,VWS V14.01,2013-02-15 17:04:00,
2013-02-15 12:09:00,48.2,35.0,29.96,SW,217,4.0,9.0,60,0.00,,---,0.00,VWS V14.01,2013-02-15 17:09:00,
2013-02-15 12:14:00,48.0,35.2,29.96,WSW,251,9.0,9.0,61,0.00,,---,0.00,VWS V14.01,2013-02-15 17:14:00,
2013-02-15 12:19:00,47.9,35.1,29.95,SSW,211,5.0,12.0,61,0.00,,---,0.00,VWS V14.01,2013-02-15 17:19:00,
2013-02-15 12:24:00,48.2,35.4,29.95,WSW,237,7.0,12.0,61,0.00,,---,0.00,VWS V14.01,2013-02-15 17:24:00,
2013-02-15 12:29:00,48.0,35.2,29.95,SSW,213,8.0,13.0,61,0.00,,---,0.00,VWS V14.01,2013-02-15 17:29:00,
2013-02-15 12:34:00,48.0,35.6,29.94,SSW,210,4.0,10.0,62,0.00,,---,0.00,VWS V14.01,2013-02-15 17:34:00,
2013-02-15 12:39:00,48.2,35.4,29.94,WSW,248,13.0,14.0,61,0.00,,---,0.00,VWS V14.01,2013-02-15 17:39:00,
2013-02-15 12:44:00,48.2,35.4,29.94,SSW,196,6.0,8.0,61,0.00,,---,0.00,VWS V14.01,2013-02-15 17:44:00,
2013-02-15 12:49:00,48.2,35.8,29.94,WSW,246,4.0,9.0,62,0.00,,---,0.00,VWS V14.01,2013-02-15 17:49:00,
2013-02-15 12:54:00,48.6,36.2,29.94,WSW,252,5.0,7.0,62,0.00,,---,0.00,VWS V14.01,2013-02-15 17:54:00,
2013-02-15 12:59:00,48.8,36.0,29.94,SSW,204,2.0,9.0,61,0.00,,---,0.00,VWS V14.01,2013-02-15 17:59:00,
2013-02-15 13:04:00,49.2,36.3,29.93,SW,219,3.0,6.0,61,0.00,,---,0.00,VWS V14.01,2013-02-15 18:04:00,
2013-02-15 13:09:00,49.2,36.3,29.93,SW,215,5.0,9.0,61,0.00,,---,0.00,VWS V14.01,2013-02-15 18:09:00,
2013-02-15 13:14:00,49.4,36.5,29.93,SW,230,3.0,7.0,61,0.00,,---,0.00,VWS V14.01,2013-02-15 18:14:00,
2013-02-15 13:19:00,48.9,36.1,29.93,WSW,239,7.0,9.0,61,0.00,,---,0.00,VWS V14.01,2013-02-15 18:19:00,
2013-02-15 13:24:00,48.9,35.6,29.93,WSW,240,4.0,10.0,60,0.00,,---,0.00,VWS V14.01,2013-02-15 18:24:00,
2013-02-15 13:29:00,49.2,35.9,29.93,WSW,244,5.0,10.0,60,0.00,,---,0.00,VWS V14.01,2013-02-15 18:29:00,
2013-02-15 13:34:00,49.1,35.8,29.93,SW,236,7.0,12.0,60,0.00,,---,0.00,VWS V14.01,2013-02-15 18:34:00,
2013-02-15 13:39:00,48.9,35.6,29.93,WSW,246,5.0,12.0,60,0.00,,---,0.00,VWS V14.01,2013-02-15 18:39:00,
2013-02-15 13:44:00,49.1,35.8,29.93,WSW,241,8.0,9.0,60,0.00,,---,0.00,VWS V14.01,2013-02-15 18:44:00,
2013-02-15 13:49:00,49.2,35.9,29.92,WSW,251,11.0,12.0,60,0.00,,---,0.00,VWS V14.01,2013-02-15 18:49:00,
2013-02-15 13:54:00,49.1,35.8,29.92,WSW,241,4.0,11.0,60,0.00,,---,0.00,VWS V14.01,2013-02-15 18:54:00,
2013-02-15 13:59:00,49.2,35.9,29.92,SW,234,5.0,9.0,60,0.00,,---,0.00,VWS V14.01,2013-02-15 18:59:00,
2013-02-15 14:04:00,49.4,35.7,29.92,SSW,199,3.0,8.0,59,0.00,,---,0.00,VWS V14.01,2013-02-15 19:04:00,
2013-02-15 14:09:00,49.5,35.8,29.92,WSW,242,2.0,8.0,59,0.00,,---,0.00,VWS V14.01,2013-02-15 19:09:00,
2013-02-15 14:14:00,49.5,36.2,29.92,SSW,213,5.0,11.0,60,0.00,,---,0.00,VWS V14.01,2013-02-15 19:14:00,
2013-02-15 14:19:00,49.4,36.1,29.92,SSW,208,5.0,10.0,60,0.00,,---,0.00,VWS V14.01,2013-02-15 19:19:00,
2013-02-15 14:24:00,49.5,36.2,29.92,SW,219,4.0,8.0,60,0.00,,---,0.00,VWS V14.01,2013-02-15 19:24:00,
2013-02-15 14:29:00,49.6,35.9,29.92,WSW,238,7.0,10.0,59,0.00,,---,0.00,VWS V14.01,2013-02-15 19:29:00,
2013-02-15 14:34:00,49.5,36.2,29.92,SW,231,7.0,7.0,60,0.00,,---,0.00,VWS V14.01,2013-02-15 19:34:00,
2013-02-15 14:39:00,49.6,36.7,29.92,SSW,213,4.0,5.0,61,0.00,,---,0.00,VWS V14.01,2013-02-15 19:39:00,
2013-02-15 14:44:00,49.6,37.1,29.92,SW,219,5.0,6.0,62,0.00,,---,0.00,VWS V14.01,2013-02-15 19:44:00,
2013-02-15 14:49:00,49.4,36.5,29.91,SSW,209,5.0,9.0,61,0.00,,---,0.00,VWS V14.01,2013-02-15 19:49:00,
2013-02-15 14:54:00,48.9,36.5,29.91,SSW,209,3.0,7.0,62,0.00,,---,0.00,VWS V14.01,2013-02-15 19:54:00,
2013-02-15 14:59:00,48.9,36.9,29.91,South,191,3.0,7.0,63,0.00,,---,0.00,VWS V14.01,2013-02-15 19:59:00,
2013-02-15 15:04:00,49.1,37.1,29.91,SW,224,1.0,7.0,63,0.00,,---,0.00,VWS V14.01,2013-02-15 20:04:00,
2013-02-15 15:09:00,48.9,36.9,29.91,SSW,199,2.0,7.0,63,0.00,,---,0.00,VWS V14.01,2013-02-15 20:09:00,
2013-02-15 15:14:00,48.9,36.9,29.91,SSW,198,5.0,8.0,63,0.00,,---,0.00,VWS V14.01,2013-02-15 20:14:00,
2013-02-15 15:19:00,49.1,36.7,29.91,SW,223,3.0,8.0,62,0.00,,---,0.00,VWS V14.01,2013-02-15 20:19:00,
2013-02-15 15:24:00,49.1,37.1,29.91,SSW,198,3.0,8.0,63,0.00,,---,0.00,VWS V14.01,2013-02-15 20:24:00,
2013-02-15 15:29:00,48.9,37.3,29.91,SW,221,4.0,9.0,64,0.00,,---,0.00,VWS V14.01,2013-02-15 20:29:00,
2013-02-15 15:34:00,48.8,36.8,29.91,SW,229,1.0,7.0,63,0.00,,---,0.00,VWS V14.01,2013-02-15 20:34:00,
2013-02-15 15:39:00,48.8,36.8,29.91,SW,227,0.0,8.0,63,0.00,,---,0.00,VWS V14.01,2013-02-15 20:39:00,
2013-02-15 15:44:00,48.8,36.8,29.91,SW,219,4.0,7.0,63,0.00,,---,0.00,VWS V14.01,2013-02-15 20:44:00,
2013-02-15 15:49:00,48.2,36.6,29.91,SW,215,4.0,9.0,64,0.00,,---,0.00,VWS V14.01,2013-02-15 20:49:00,
2013-02-15 15:54:00,48.2,37.0,29.91,SW,236,0.0,5.0,65,0.00,,---,0.00,VWS V14.01,2013-02-15 20:54:00,
2013-02-15 15:59:00,48.0,36.4,29.91,SW,223,4.0,8.0,64,0.00,,---,0.00,VWS V14.01,2013-02-15 20:59:00,
2013-02-15 16:04:00,47.7,36.5,29.91,SSW,193,4.0,8.0,65,0.00,,---,0.00,VWS V14.01,2013-02-15 21:04:00,
2013-02-15 16:09:00,47.6,36.4,29.91,SSW,209,2.0,8.0,65,0.00,,---,0.00,VWS V14.01,2013-02-15 21:09:00,
2013-02-15 16:14:00,47.6,36.4,29.91,SSW,213,4.0,7.0,65,0.00,,---,0.00,VWS V14.01,2013-02-15 21:14:00,
2013-02-15 16:19:00,47.4,36.2,29.90,SSW,212,2.0,4.0,65,0.00,,---,0.00,VWS V14.01,2013-02-15 21:19:00,
2013-02-15 16:24:00,47.3,36.2,29.90,SW,215,4.0,7.0,65,0.00,,---,0.00,VWS V14.01,2013-02-15 21:24:00,
2013-02-15 16:29:00,47.0,36.2,29.90,South,184,4.0,9.0,66,0.00,,---,0.00,VWS V14.01,2013-02-15 21:29:00,
2013-02-15 16:34:00,46.8,36.0,29.90,SSW,195,4.0,8.0,66,0.00,,---,0.00,VWS V14.01,2013-02-15 21:34:00,
2013-02-15 16:39:00,46.7,36.0,29.90,SW,225,2.0,4.0,66,0.00,,---,0.00,VWS V14.01,2013-02-15 21:39:00,
2013-02-15 16:44:00,46.7,36.0,29.90,SW,219,3.0,5.0,66,0.00,,---,0.00,VWS V14.01,2013-02-15 21:44:00,
2013-02-15 16:49:00,46.5,35.8,29.91,SW,219,5.0,6.0,66,0.00,,---,0.00,VWS V14.01,2013-02-15 21:49:00,
2013-02-15 16:54:00,46.4,36.0,29.91,SSW,203,2.0,6.0,67,0.00,,---,0.00,VWS V14.01,2013-02-15 21:54:00,
2013-02-15 16:59:00,46.1,36.1,29.91,WSW,246,2.0,3.0,68,0.00,,---,0.00,VWS V14.01,2013-02-15 21:59:00,
2013-02-15 17:04:00,46.0,36.4,29.91,South,190,1.0,3.0,69,0.00,,---,0.00,VWS V14.01,2013-02-15 22:04:00,
2013-02-15 17:09:00,45.7,36.8,29.91,SSW,209,2.0,4.0,71,0.00,,---,0.00,VWS V14.01,2013-02-15 22:09:00,
2013-02-15 17:14:00,45.2,36.7,29.91,South,190,2.0,4.0,72,0.00,,---,0.00,VWS V14.01,2013-02-15 22:14:00,
2013-02-15 17:19:00,44.9,36.8,29.91,SSW,207,4.0,4.0,73,0.00,,---,0.00,VWS V14.01,2013-02-15 22:19:00,
2013-02-15 17:24:00,44.6,36.5,29.91,South,173,4.0,6.0,73,0.00,,---,0.00,VWS V14.01,2013-02-15 22:24:00,
2013-02-15 17:29:00,44.3,36.5,29.91,South,176,2.0,6.0,74,0.00,,---,0.00,VWS V14.01,2013-02-15 22:29:00,
2013-02-15 17:34:00,44.1,36.7,29.91,South,186,4.0,5.0,75,0.00,,---,0.00,VWS V14.01,2013-02-15 22:34:00,
2013-02-15 17:39:00,43.6,36.9,29.91,SSW,202,4.0,8.0,77,0.00,,---,0.00,VWS V14.01,2013-02-15 22:39:00,
2013-02-15 17:44:00,43.3,36.6,29.91,South,189,2.0,4.0,77,0.00,,---,0.00,VWS V14.01,2013-02-15 22:44:00,
2013-02-15 17:49:00,43.1,36.7,29.91,South,189,1.0,3.0,78,0.00,,---,0.00,VWS V14.01,2013-02-15 22:49:00,
2013-02-15 17:54:00,42.9,36.8,29.91,SW,229,2.0,3.0,79,0.00,,---,0.00,VWS V14.01,2013-02-15 22:54:00,
2013-02-15 17:59:00,42.8,37.1,29.91,SW,229,0.0,3.0,80,0.00,,---,0.00,VWS V14.01,2013-02-15 22:59:00,
2013-02-15 18:04:00,42.8,37.1,29.92,SW,229,2.0,4.0,80,0.00,,---,0.00,VWS V14.01,2013-02-15 23:04:00,
2013-02-15 18:09:00,42.6,37.2,29.92,SW,229,0.0,3.0,81,0.00,,---,0.00,VWS V14.01,2013-02-15 23:09:00,
2013-02-15 18:14:00,42.5,37.1,29.92,SW,229,2.0,4.0,81,0.00,,---,0.00,VWS V14.01,2013-02-15 23:14:00,
2013-02-15 18:19:00,42.3,36.9,29.92,SW,229,0.0,2.0,81,0.00,,---,0.00,VWS V14.01,2013-02-15 23:19:00,
2013-02-15 18:24:00,42.2,37.1,29.92,SW,229,1.0,2.0,82,0.00,,---,0.00,VWS V14.01,2013-02-15 23:24:00,
2013-02-15 18:29:00,42.1,37.3,29.92,SW,229,0.0,3.0,83,0.00,,---,0.00,VWS V14.01,2013-02-15 23:29:00,
2013-02-15 18:34:00,41.9,37.1,29.92,SW,232,3.0,4.0,83,0.00,,---,0.00,VWS V14.01,2013-02-15 23:34:00,
2013-02-15 18:39:00,41.8,37.3,29.92,SW,232,2.0,3.0,84,0.00,,---,0.00,VWS V14.01,2013-02-15 23:39:00,
2013-02-15 18:44:00,41.6,37.1,29.92,SW,232,1.0,3.0,84,0.00,,---,0.00,VWS V14.01,2013-02-15 23:44:00,
2013-02-15 18:49:00,41.3,37.1,29.92,SW,232,1.0,2.0,85,0.00,,---,0.00,VWS V14.01,2013-02-15 23:49:00,
2013-02-15 18:54:00,41.2,37.0,29.92,SW,232,2.0,2.0,85,0.00,,---,0.00,VWS V14.01,2013-02-15 23:54:00,
2013-02-15 18:59:00,41.1,37.2,29.92,SW,232,1.0,2.0,86,0.00,,---,0.00,VWS V14.01,2013-02-15 23:59:00,
2013-02-15 19:04:00,40.9,37.0,29.92,SW,232,3.0,3.0,86,0.00,,---,0.00,VWS V14.01,2013-02-16 00:04:00,
2013-02-15 19:09:00,40.8,36.9,29.92,SW,224,1.0,3.0,86,0.00,,---,0.00,VWS V14.01,2013-02-16 00:09:00,
2013-02-15 19:14:00,40.5,36.7,29.92,SW,224,0.0,1.0,86,0.00,,---,0.00,VWS V14.01,2013-02-16 00:14:00,
2013-02-15 19:19:00,40.5,36.9,29.92,SW,224,1.0,2.0,87,0.00,,---,0.00,VWS V14.01,2013-02-16 00:19:00,
2013-02-15 19:24:00,40.5,36.9,29.92,SW,224,0.0,0.0,87,0.00,,---,0.00,VWS V14.01,2013-02-16 00:24:00,
2013-02-15 19:29:00,40.3,36.8,29.92,SW,224,0.0,1.0,87,0.00,,---,0.00,VWS V14.01,2013-02-16 00:29:00,
2013-02-15 19:34:00,40.3,36.8,29.92,SW,224,0.0,1.0,87,0.00,,---,0.00,VWS V14.01,2013-02-16 00:34:00,
2013-02-15 19:39:00,40.1,36.5,29.92,SW,224,0.0,0.0,87,0.00,,---,0.00,VWS V14.01,2013-02-16 00:39:00,
2013-02-15 19:44:00,39.9,36.3,29.92,SW,224,0.0,0.0,87,0.00,,---,0.00,VWS V14.01,2013-02-16 00:44:00,
2013-02-15 19:49:00,39.8,36.5,29.92,SW,224,0.0,0.0,88,0.00,,---,0.00,VWS V14.01,2013-02-16 00:49:00,
2013-02-15 19:54:00,39.6,36.3,29.92,SW,224,0.0,0.0,88,0.00,,---,0.00,VWS V14.01,2013-02-16 00:54:00,
2013-02-15 19:59:00,39.3,36.0,29.92,SW,224,0.0,0.0,88,0.00,,---,0.00,VWS V14.01,2013-02-16 00:59:00,
2013-02-15 20:04:00,38.8,35.8,29.92,SW,224,0.0,0.0,89,0.00,,---,0.00,VWS V14.01,2013-02-16 01:04:00,
2013-02-15 20:09:00,38.5,35.8,29.92,SW,224,0.0,0.0,90,0.00,,---,0.00,VWS V14.01,2013-02-16 01:09:00,
2013-02-15 20:14:00,38.2,35.5,29.92,SW,224,0.0,0.0,90,0.00,,---,0.00,VWS V14.01,2013-02-16 01:14:00,
2013-02-15 20:19:00,37.9,35.5,29.92,SW,224,0.0,0.0,91,0.00,,---,0.00,VWS V14.01,2013-02-16 01:19:00,
2013-02-15 20:24:00,37.8,35.4,29.92,SW,224,0.0,0.0,91,0.00,,---,0.00,VWS V14.01,2013-02-16 01:24:00,
2013-02-15 20:29:00,37.9,35.8,29.92,SW,224,0.0,0.0,92,0.00,,---,0.00,VWS V14.01,2013-02-16 01:29:00,
2013-02-15 20:34:00,38.0,35.9,29.92,SW,224,0.0,0.0,92,0.00,,---,0.00,VWS V14.01,2013-02-16 01:34:00,
2013-02-15 20:39:00,38.0,35.9,29.92,SW,224,0.0,0.0,92,0.00,,---,0.00,VWS V14.01,2013-02-16 01:39:00,
2013-02-15 20:44:00,38.0,35.9,29.92,SW,224,0.0,1.0,92,0.00,,---,0.00,VWS V14.01,2013-02-16 01:44:00,
2013-02-15 20:49:00,37.9,36.1,29.92,SW,224,0.0,0.0,93,0.00,,---,0.00,VWS V14.01,2013-02-16 01:49:00,
2013-02-15 20:54:00,37.8,36.0,29.92,SW,224,0.0,0.0,93,0.00,,---,0.00,VWS V14.01,2013-02-16 01:54:00,
2013-02-15 20:59:00,37.6,35.8,29.92,SW,224,0.0,1.0,93,0.00,,---,0.00,VWS V14.01,2013-02-16 01:59:00,
2013-02-15 21:04:00,37.5,35.7,29.92,SW,224,0.0,0.0,93,0.00,,---,0.00,VWS V14.01,2013-02-16 02:04:00,
2013-02-15 21:09:00,37.0,35.2,29.92,SW,224,0.0,0.0,93,0.00,,---,0.00,VWS V14.01,2013-02-16 02:09:00,
2013-02-15 21:14:00,36.8,35.2,29.92,SW,224,0.0,1.0,94,0.00,,---,0.00,VWS V14.01,2013-02-16 02:14:00,
2013-02-15 21:19:00,37.0,35.4,29.92,SW,224,0.0,1.0,94,0.00,,---,0.00,VWS V14.01,2013-02-16 02:19:00,
2013-02-15 21:24:00,37.3,35.7,29.92,SW,224,1.0,1.0,94,0.00,,---,0.00,VWS V14.01,2013-02-16 02:24:00,
2013-02-15 21:29:00,37.5,35.9,29.92,SW,224,1.0,2.0,94,0.00,,---,0.00,VWS V14.01,2013-02-16 02:29:00,
2013-02-15 21:34:00,37.5,35.9,29.92,West,270,2.0,3.0,94,0.00,,---,0.00,VWS V14.01,2013-02-16 02:34:00,
2013-02-15 21:39:00,37.5,35.9,29.92,West,270,2.0,5.0,94,0.00,,---,0.00,VWS V14.01,2013-02-16 02:39:00,
2013-02-15 21:44:00,37.3,35.7,29.92,West,272,1.0,5.0,94,0.00,,---,0.00,VWS V14.01,2013-02-16 02:44:00,
2013-02-15 21:49:00,37.3,35.7,29.92,West,272,2.0,4.0,94,0.00,,---,0.00,VWS V14.01,2013-02-16 02:49:00,
2013-02-15 21:54:00,37.5,35.9,29.92,West,272,1.0,2.0,94,0.00,,---,0.00,VWS V14.01,2013-02-16 02:54:00,
2013-02-15 21:59:00,37.3,35.7,29.92,West,272,1.0,2.0,94,0.00,,---,0.00,VWS V14.01,2013-02-16 02:59:00,
2013-02-15 22:04:00,37.3,35.7,29.92,West,272,0.0,2.0,94,0.00,,---,0.00,VWS V14.01,2013-02-16 03:04:00,
2013-02-15 22:09:00,37.3,35.7,29.92,West,272,0.0,1.0,94,0.00,,---,0.00,VWS V14.01,2013-02-16 03:09:00,
2013-02-15 22:14:00,37.2,35.9,29.92,West,272,1.0,1.0,95,0.00,,---,0.00,VWS V14.01,2013-02-16 03:14:00,
2013-02-15 22:19:00,37.2,35.9,29.92,West,272,1.0,2.0,95,0.00,,---,0.00,VWS V14.01,2013-02-16 03:19:00,
2013-02-15 22:24:00,37.0,35.7,29.92,West,272,0.0,1.0,95,0.00,,---,0.00,VWS V14.01,2013-02-16 03:24:00,
2013-02-15 22:29:00,37.2,35.9,29.92,West,272,2.0,3.0,95,0.00,,---,0.00,VWS V14.01,2013-02-16 03:29:00,
2013-02-15 22:34:00,37.0,35.7,29.92,West,272,0.0,1.0,95,0.00,,---,0.00,VWS V14.01,2013-02-16 03:34:00,
2013-02-15 22:39:00,35.6,34.0,29.92,West,272,0.0,2.0,94,0.00,,---,0.00,VWS V14.01,2013-02-16 03:39:00,
2013-02-15 22:44:00,35.0,33.7,29.92,West,272,0.0,1.0,95,0.00,,---,0.00,VWS V14.01,2013-02-16 03:44:00,
2013-02-15 22:49:00,35.0,34.0,29.91,West,272,0.0,0.0,96,0.00,,---,0.00,VWS V14.01,2013-02-16 03:49:00,
2013-02-15 22:54:00,35.0,34.0,29.91,West,272,0.0,0.0,96,0.00,,---,0.00,VWS V14.01,2013-02-16 03:54:00,
2013-02-15 22:59:00,35.5,34.7,29.91,West,272,0.0,2.0,97,0.00,,---,0.00,VWS V14.01,2013-02-16 03:59:00,
2013-02-15 23:04:00,35.9,35.1,29.91,West,272,0.0,2.0,97,0.00,,---,0.00,VWS V14.01,2013-02-16 04:04:00,
2013-02-15 23:09:00,36.2,35.4,29.91,West,272,0.0,0.0,97,0.00,,---,0.00,VWS V14.01,2013-02-16 04:09:00,
2013-02-15 23:14:00,36.0,35.2,29.91,West,272,0.0,0.0,97,0.00,,---,0.00,VWS V14.01,2013-02-16 04:14:00,
2013-02-15 23:19:00,36.0,35.2,29.91,West,272,0.0,0.0,97,0.00,,---,0.00,VWS V14.01,2013-02-16 04:19:00,
2013-02-15 23:24:00,35.9,35.1,29.91,West,272,0.0,0.0,97,0.00,,---,0.00,VWS V14.01,2013-02-16 04:24:00,
2013-02-15 23:29:00,35.8,35.0,29.91,West,272,0.0,0.0,97,0.00,,---,0.00,VWS V14.01,2013-02-16 04:29:00,
2013-02-15 23:34:00,35.8,35.0,29.92,West,272,0.0,0.0,97,0.00,,---,0.00,VWS V14.01,2013-02-16 04:34:00,
2013-02-15 23:39:00,35.6,34.8,29.92,West,272,0.0,0.0,97,0.00,,---,0.00,VWS V14.01,2013-02-16 04:39:00,
2013-02-15 23:44:00,35.6,34.8,29.92,West,272,0.0,0.0,97,0.00,,---,0.00,VWS V14.01,2013-02-16 04:44:00,
2013-02-15 23:49:00,35.6,34.8,29.92,West,272,0.0,0.0,97,0.00,,---,0.00,VWS V14.01,2013-02-16 04:49:00,
2013-02-15 23:54:00,35.6,34.8,29.92,West,272,0.0,0.0,97,0.00,,---,0.00,VWS V14.01,2013-02-16 04:54:00,
2013-02-15 23:59:00,35.6,34.8,29.92,West,272,0.0,0.0,97,0.00,,---,0.00,VWS V14.01,2013-02-16 04:59:00,